Vertical_Velocity
-1 -1 -1 -0 1 1 1 -1 -1 -0 0 1 -1 -4 1 2 -0 -1 -2 0 -1 2 1 -0 0 -0 -2 -1 -0 -4 2 -2 -2 1 -14 15 -7 5 -6 -3 11 6 1 -6 49 -19 -1
-1 -3 1 0 -1 0 0 -0 0 -0 0 -2 2 -3 1 1 -0 1 -0 -3 -1 -0 2 1 -1 0 -2 -2 1 -6 -2 0 1 -2 5 9 -5 8 5 4 -2 -5 -6 -3 38 -4 -8
-1 1 1 1 -3 0 -0 -0 -1 -1 -1 -1 1 -4 2 -0 1 -0 -0 0 -0 2 -2 -1 -3 -1 -3 -5 -1 -3 -5 -3 3 18 -21 10 1 18 3 15 3 -4 -3 5 49 1 -11
3 -2 1 -1 2 -4 -2 1 1 2 2 -1 -3 -1 -1 -0 3 -3 3 -3 2 2 0 2 2 1 1 -4 -2 -1 -2 -4 -4 -11 -7 14 -11 2 -12 9 12 -11 37 9 1 18 14
1 -4 0 7 -2 0 -3 1 1 1 2 -3 -0 0 -2 0 -1 3 -1 0 1 -1 -3 0 1 -2 1 -1 -1 1 2 -0 -3 -3 4 13 4 6 2 7 8 7 -0 -1 -1 -8 2
1 0 -0 -1 -3 3 -1 1 -0 -1 3 -2 0 1 -2 1 -0 1 -1 -1 -2 -3 -1 -2 1 0 -5 1 -1 0 7 10 -3 -10 3 6 3 26 13 5 -20 -14 0 7 -4 -8 -0
6 4 5 2 -5 3 1 1 2 2 -1 3 0 -3 -0 -0 1 -2 -2 -1 1 -1 -1 2 0 1 -2 -1 -2 -0 3 -1 12 12 -1 9 -5 -4 -10 -5 4 5 -3 6 -6 21 -1
6 -5 0 3 -2 2 -1 -2 3 -1 3 -1 0 -0 0 0 -0 -0 1 2 -2 2 -1 -1 -2 -1 -1 0 -2 -2 -4 2 -1 -0 13 7 2 23 30 8 -2 12 9 -0 33 3 -1
6 0 -2 2 5 1 -2 0 -0 2 -1 0 -2 1 2 1 -0 -1 2 1 1 -2 2 -3 -4 3 0 -1 6 0 -8 3 5 17 -2 -6 -13 1 -12 5 -6 2 -3 -4 -10 5 -5
-8 2 -4 -2 4 3 -2 -0 3 1 -1 2 -5 0 2 1 -1 -1 -1 2 -1 3 -0 -3 -2 1 2 2 8 3 4 0 5 21 21 0 1 4 -4 -4 -4 -5 -7 1 0 -6 -6
1 -2 -4 -1 4 3 -1 -0 2 2 1 1 -4 -0 0 3 -1 -0 1 5 -1 -1 4 -2 1 -1 -0 -3 5 -1 8 6 10 -5 -3 -0 -1 -6 -2 -1 10 4 -4 -11 -5 -0 17
4 2 -1 3 4 -0 -2 2 4 -1 2 2 -5 1 -0 1 -1 0 1 -3 1 0 0 -2 -2 -0 -5 -8 1 3 -14 -1 -1 4 5 -9 -11 7 5 5 4 -10 -9 2 7 6 3
-7 7 5 3 -4 -1 1 2 1 -1 0 3 -5 1 -0 0 -1 2 -1 -2 -1 2 -1 -2 3 -4 -3 -1 7 4 2 1 -0 -8 -9 -0 -12 -4 -2 1 2 4 1 4 8 5 -3
-9 -18 26 17 -4 2 -0 1 0 0 -1 2 -5 1 2 -0 1 2 -3 -3 3 -1 2 -3 -0 -3 5 -3 -1 -1 2 -4 -1 -4 2 7 13 12 -0 6 -10 -1 -9 -7 -4 -2 -4
-8 -8 23 15 1 -1 4 3 -1 2 -0 -0 -5 2 1 -2 -0 1 -3 2 1 -1 0 1 7 18 -3 -0 -5 -4 -2 -2 -3 -6 0 0 -1 -2 -8 -6 8 10 6 -4 -0 -1 1
1 1 17 7 3 -1 5 3 0 1 1 -1 -5 2 0 0 -1 0 -2 0 0 -1 -1 -3 3 -1 3 4 1 -1 -2 -1 -1 -1 4 -4 -3 -0 -0 -2 2 2 5 -1 -6 0 1
-0 5 -7 28 14 -10 5 2 1 2 1 -1 -3 1 0 1 -2 -0 -1 0 -5 3 -2 0 -0 -5 -2 5 2 3 1 0 -4 1 -8 3 -8 7 8 4 -9 -4 -3 -5 5 -2 3
-5 -0 -2 21 12 -3 5 1 1 2 0 -1 -2 1 0 1 -3 -3 -0 0 -0 7 -5 -1 -1 3 -2 -1 -2 -3 -4 3 -2 1 3 -1 -2 -1 -2 -2 -4 15 3 0 6 -1 -1
-3 0 5 6 5 3 4 1 1 2 0 -1 -2 2 -0 0 -2 -4 -1 1 -1 4 0 0 1 -2 -1 4 1 3 0 -2 3 7 4 0 5 -1 0 -4 -3 -6 -4 -1 0 -0 -3
-8 3 0 10 8 -2 2 1 2 2 -0 -0 -2 -1 0 -0 -1 -7 -1 1 -2 2 -2 -2 -2 1 -5 0 -2 0 -4 -2 -6 -8 2 -7 4 4 0 1 -1 -7 -4 -1 9 -1 -10
3 5 1 8 23 3 -1 2 2 2 -1 1 -1 -2 -0 -1 -2 -2 -0 0 -2 -1 1 2 2 1 -2 1 2 2 1 -1 1 -3 -1 1 1 1 -1 -2 -1 1 2 2 -4 -6 10
7 9 19 3 6 -5 0 1 1 1 0 -0 -1 0 2 -1 -3 -1 -4 -1 3 -1 -0 2 -0 0 2 2 -8 2 1 4 1 2 0 1 -3 -3 -2 -1 -0 -2 -0 -3 -2 1 4
-4 13 32 3 14 -10 1 2 2 1 1 0 1 -1 3 -0 -1 -1 -1 2 -2 -0 -1 1 2 -4 -3 -4 7 -2 -6 -2 0 3 3 1 -2 -0 4 -0 -1 -3 3 3 3 4 2
-2 10 18 8 6 -9 1 1 2 -1 -0 1 1 -0 3 -3 -2 1 -0 1 -1 -1 -7 -0 -0 -4 3 1 -4 -6 -1 -2 -5 -2 1 0 1 -1 0 -0 3 -0 0 -1 -3 -1 3
2 6 4 25 -6 -3 -0 0 -2 -1 1 -0 1 2 2 -1 -2 -1 -0 -3 1 -0 -3 -1 -1 -2 -2 -1 0 0 1 1 -1 -3 -7 -5 1 -1 1 -1 6 -3 -1 1 7 5 -4
-3 20 6 23 -0 -6 -2 -1 1 -1 -0 -0 2 3 1 0 -4 -3 -0 -2 -1 -2 0 -1 -3 -0 2 -3 -7 0 -0 0 -1 2 3 -1 -5 1 -4 1 1 5 -5 -3 -3 12 -2
-8 30 12 17 -5 -10 0 0 -0 -2 0 -0 1 1 1 1 -1 -3 -3 -4 0 -1 -1 2 -0 -2 1 -1 1 -2 5 3 4 -0 -2 2 4 -1 -0 2 4 -5 -2 -1 4 1 -0
19 41 7 2 3 -2 1 2 -1 -2 -0 -0 1 1 2 0 -1 -4 -2 -3 1 3 4 -3 2 -1 1 -0 3 2 5 2 -3 7 8 3 1 -2 1 0 1 -1 1 0 1 -1 -1
-13 48 2 2 -1 1 -3 1 -1 -0 1 -0 -0 1 0 -3 -2 -2 -1 0 -1 0 2 -2 -2 -3 -5 -1 1 -1 -0 -6 -0 7 -6 1 -5 3 1 7 -0 -0 -1 -1 -3 -5 -3
Height
3134 3130 3126 3121 3115 3111 3105 3100 3094 3090 3083 3078 3072 3067 3064 3061 3057 3053 3050 3047 3044 3041 3038 3036 3034 3032 3031 3029 3027 3024 3024 3024 3025 3028 3030 3037 3044 3052 3057 3066 3073 3077 3084 3095 3093 3099 3106
3133 3129 3124 3119 3114 3109 3104 3098 3092 3087 3081 3075 3070 3065 3060 3057 3053 3049 3046 3043 3040 3038 3034 3033 3032 3030 3028 3028 3024 3022 3022 3022 3024 3025 3027 3032 3042 3051 3059 3065 3069 3073 3082 3092 3090 3094 3101
3131 3127 3122 3117 3112 3108 3102 3097 3091 3084 3078 3072 3066 3062 3058 3054 3050 3046 3044 3040 3037 3034 3032 3031 3030 3027 3025 3025 3021 3020 3019 3019 3022 3024 3025 3033 3039 3043 3053 3062 3069 3075 3077 3076 3082 3092 3104
3128 3125 3120 3115 3110 3105 3100 3095 3089 3082 3076 3069 3063 3059 3055 3051 3047 3043 3040 3037 3034 3032 3029 3028 3026 3024 3021 3018 3017 3015 3013 3014 3019 3021 3023 3030 3035 3038 3046 3062 3068 3072 3074 3077 3080 3088 3088
3125 3122 3118 3113 3108 3104 3099 3092 3087 3080 3073 3067 3060 3056 3051 3047 3043 3040 3037 3034 3032 3030 3028 3026 3024 3021 3019 3015 3013 3011 3009 3012 3017 3019 3023 3028 3035 3038 3048 3056 3065 3070 3071 3076 3075 3085 3092
3120 3117 3115 3111 3106 3102 3097 3090 3084 3077 3071 3064 3057 3053 3048 3044 3040 3037 3035 3032 3030 3029 3027 3025 3023 3022 3017 3015 3010 3007 3008 3013 3016 3021 3024 3029 3034 3032 3043 3051 3055 3062 3068 3073 3078 3085 3090
3115 3113 3111 3108 3104 3100 3094 3087 3081 3075 3068 3062 3054 3050 3045 3041 3037 3034 3033 3030 3032 3030 3026 3026 3023 3019 3016 3014 3010 3009 3009 3013 3017 3018 3021 3025 3030 3031 3039 3047 3057 3062 3068 3073 3078 3082 3086
3111 3108 3107 3103 3100 3096 3090 3084 3078 3072 3065 3059 3053 3047 3042 3038 3035 3033 3031 3029 3028 3029 3026 3024 3022 3019 3016 3013 3013 3011 3013 3016 3017 3018 3022 3028 3029 3036 3044 3051 3055 3060 3067 3073 3078 3082 3085
3105 3103 3101 3099 3096 3092 3087 3081 3075 3069 3062 3056 3051 3045 3039 3037 3033 3031 3029 3028 3026 3026 3026 3024 3022 3019 3017 3015 3015 3015 3016 3017 3018 3020 3024 3029 3031 3035 3042 3050 3055 3062 3067 3073 3078 3083 3087
3100 3097 3096 3094 3091 3088 3082 3077 3071 3066 3059 3054 3049 3042 3037 3035 3033 3030 3028 3026 3026 3026 3026 3026 3021 3020 3019 3017 3017 3016 3016 3020 3020 3024 3028 3035 3035 3040 3046 3053 3059 3064 3069 3073 3080 3084 3086
3093 3091 3090 3088 3086 3082 3078 3073 3068 3062 3057 3052 3047 3040 3035 3032 3030 3029 3028 3024 3025 3026 3025 3026 3022 3020 3019 3020 3019 3016 3018 3021 3023 3026 3032 3037 3040 3045 3048 3056 3061 3064 3069 3076 3082 3084 3084
3085 3083 3084 3082 3079 3077 3073 3069 3064 3059 3055 3049 3045 3037 3034 3033 3029 3028 3025 3024 3026 3029 3027 3027 3024 3022 3023 3022 3022 3021 3022 3025 3025 3028 3032 3037 3041 3044 3050 3055 3060 3064 3072 3079 3082 3085 3086
3074 3072 3076 3076 3074 3072 3068 3064 3060 3056 3053 3046 3042 3035 3033 3031 3028 3026 3024 3025 3027 3026 3029 3030 3027 3025 3023 3025 3025 3026 3028 3029 3029 3033 3037 3041 3045 3048 3051 3056 3061 3066 3070 3077 3082 3083 3080
3065 3068 3066 3068 3068 3066 3063 3060 3056 3052 3050 3045 3040 3034 3033 3029 3027 3025 3024 3026 3027 3027 3028 3028 3028 3027 3027 3028 3028 3028 3030 3033 3034 3038 3040 3041 3046 3047 3052 3059 3062 3067 3068 3069 3072 3072 3073
3054 3057 3057 3060 3061 3060 3059 3055 3052 3049 3046 3043 3037 3033 3032 3027 3026 3024 3026 3026 3026 3026 3027 3029 3029 3027 3028 3030 3032 3032 3033 3036 3039 3042 3043 3044 3046 3049 3054 3057 3065 3066 3068 3070 3071 3070 3069
3042 3047 3048 3052 3053 3054 3053 3050 3048 3046 3042 3040 3035 3032 3030 3027 3025 3025 3025 3025 3026 3025 3027 3029 3030 3029 3029 3030 3033 3034 3036 3037 3038 3041 3045 3047 3049 3052 3055 3059 3063 3064 3069 3072 3072 3073 3070
3030 3036 3041 3043 3044 3047 3047 3045 3044 3042 3040 3036 3032 3030 3028 3026 3025 3025 3025 3024 3026 3027 3029 3030 3030 3031 3031 3030 3033 3033 3034 3037 3038 3041 3045 3049 3050 3054 3058 3059 3060 3064 3066 3070 3072 3073 3068
3019 3025 3030 3034 3038 3039 3041 3040 3040 3038 3036 3033 3030 3028 3026 3025 3027 3025 3025 3025 3027 3029 3030 3031 3031 3032 3033 3033 3033 3035 3035 3035 3038 3041 3045 3046 3049 3052 3055 3056 3058 3063 3066 3069 3069 3073 3073
3006 3014 3019 3025 3029 3032 3034 3035 3035 3034 3033 3030 3027 3026 3024 3024 3025 3026 3025 3026 3028 3029 3030 3030 3032 3033 3034 3035 3036 3036 3037 3038 3039 3042 3044 3046 3048 3052 3057 3060 3059 3059 3062 3065 3069 3069 3071
2996 3005 3008 3017 3022 3025 3027 3029 3030 3030 3029 3026 3024 3023 3022 3022 3023 3024 3025 3027 3029 3029 3030 3031 3032 3033 3035 3037 3036 3037 3038 3040 3041 3043 3045 3046 3048 3050 3051 3050 3053 3056 3059 3063 3066 3067 3067
2988 2997 3002 3008 3014 3018 3020 3024 3026 3026 3025 3023 3021 3020 3020 3020 3021 3023 3025 3027 3029 3030 3030 3031 3032 3033 3035 3038 3039 3038 3038 3040 3042 3044 3046 3048 3049 3050 3049 3050 3051 3053 3056 3059 3060 3060 3063
2979 2987 2994 2999 3007 3012 3014 3018 3021 3021 3020 3019 3017 3017 3017 3018 3019 3021 3024 3026 3028 3029 3030 3031 3032 3034 3035 3035 3037 3039 3039 3040 3041 3043 3044 3047 3049 3050 3050 3051 3051 3051 3052 3053 3056 3057 3058
2969 2977 2985 2994 3001 3004 3007 3012 3016 3016 3016 3014 3014 3014 3015 3016 3018 3021 3023 3024 3026 3028 3030 3031 3032 3033 3034 3037 3037 3037 3039 3041 3042 3042 3044 3046 3047 3049 3050 3050 3050 3050 3048 3050 3051 3052 3054
2963 2969 2979 2987 2994 2998 3001 3007 3011 3011 3011 3010 3010 3010 3011 3013 3015 3018 3018 3022 3025 3027 3029 3031 3033 3035 3036 3036 3038 3040 3040 3040 3042 3044 3044 3045 3046 3048 3049 3049 3050 3047 3046 3047 3048 3049 3048
2958 2965 2973 2982 2988 2991 2996 3003 3006 3007 3007 3006 3007 3007 3008 3009 3011 3013 3016 3019 3023 3026 3029 3030 3032 3033 3035 3038 3039 3040 3043 3043 3041 3041 3043 3045 3047 3048 3049 3048 3047 3045 3045 3046 3046 3046 3045
2951 2960 2968 2977 2983 2988 2992 2997 3001 3003 3003 3003 3004 3005 3006 3008 3008 3010 3014 3018 3021 3024 3027 3029 3031 3033 3035 3037 3040 3040 3039 3040 3042 3040 3040 3041 3043 3047 3047 3047 3044 3044 3043 3044 3045 3045 3043
2948 2957 2965 2971 2976 2982 2987 2993 2997 2999 2999 3001 3001 3002 3003 3005 3005 3009 3011 3015 3018 3021 3024 3027 3029 3031 3033 3035 3037 3038 3038 3038 3038 3039 3040 3041 3043 3044 3045 3045 3043 3040 3041 3041 3044 3044 3039
2939 2953 2960 2965 2972 2980 2983 2988 2993 2996 2996 2999 3000 3000 3001 3003 3004 3007 3009 3013 3016 3020 3023 3025 3029 3030 3033 3035 3036 3036 3038 3041 3041 3040 3041 3042 3043 3043 3043 3043 3042 3038 3039 3041 3039 3037 3036
2935 2949 2955 2962 2968 2977 2981 2985 2990 2993 2995 2998 2998 2999 3000 3002 3004 3007 3009 3012 3014 3017 3020 3021 3024 3026 3028 3030 3033 3034 3036 3036 3038 3039 3039 3042 3041 3041 3042 3040 3037 3037 3037 3036 3034 3033 3032